Darstellungsparameter: Aktuell verwendete Einstellungen:
Skalierung der Graphiken ... ?
xyx+y,   Skalierungsfaktor:      Skalierung: Modus: x, Faktor: 1
Darstellungszeitraum ... ?
Vom - - bis: - -   Zeitraum: 07.05.2021 - 07.05.2021
Min/Max/Avg-Anzeige ... ?
Zeige MMA aktuell
Zeige MMA Monat
Zeige MMA alles
Zeige --A aktuell
Zeige --A Monat
Zeige --A alles
Keine MMA-Anzeige
MMA:
Average (ber die Originaldaten)
MMA-Basis: 07.05.2021 - 07.05.2021
Quicknavigation für Darstellung... ?
Tage:      1T, 2T, 3T, 5T -1T -2T -3T -5T +1T +2T +3T +5T
Wochen: 1W, 2W, 3W -1W -2W -3W +1W +2W +3W
Monate: 1M, 3M, 6M -1M -3M -6M +1M +3M +6M
Jahre:    1J, 3J, 5J, 10J -1J -3J -5J -10J +1J +3J +5J +10J
Nutze für die Darstellung ... ?
Originaldaten oder Mittelwerte auf ...
Stundenbasis Tagesbasis Wochenbasis
Monatsbasis Jahresbasis      Datenbasis: Original-Daten
Darstellen als:
Statistik (Auto) Statistik J:M      Darstellung:

Der gewünschte Datumsbereich war nicht gültig/verfügbar und wurde korrigiert....
Das angegebene Enddatum (07.06.2030 23:59:59) liegt in der Zukunft.
Das angegebene Startdatum (08.12.2029 00:00:00) liegt in der Zukunft.


Zur Graphik,    zurück zur Übersicht aller Sensoren.
 
Tabellarische Datenbersicht: ?
 
Sensor: Nr:Datum:Temp:Abs-Feuchte:Windchill:Wind:
Aussen-T/F 1 07-05-2021 02:00:00 6.5 C 7.12 g/m*3 6.5 C 0 km/h
2 07-05-2021 02:05:00 6.5 C 7.12 g/m*3 6.5 C 4.8 km/h
3 07-05-2021 02:10:00 6.4 C 7.08 g/m*3 6.4 C 4.8 km/h
4 07-05-2021 02:15:00 6.4 C 7.08 g/m*3 6.4 C 1.6 km/h
5 07-05-2021 02:20:00 6.4 C 7.08 g/m*3 6.4 C 1.6 km/h
6 07-05-2021 02:25:00 6.4 C 7.08 g/m*3 6.4 C 1.6 km/h
7 07-05-2021 02:30:00 6.4 C 7.08 g/m*3 6.4 C 3.2 km/h
8 07-05-2021 02:35:00 6.4 C 7.08 g/m*3 6.4 C 1.6 km/h
9 07-05-2021 02:40:00 6.4 C 7.08 g/m*3 6.4 C 3.2 km/h
10 07-05-2021 02:45:00 6.4 C 7.08 g/m*3 3.55 C 14.5 km/h
11 07-05-2021 02:50:00 6.3 C 7.03 g/m*3 4.64 C 8.1 km/h
12 07-05-2021 02:55:00 6.1 C 6.87 g/m*3 4.4 C 8.1 km/h
13 07-05-2021 03:00:00 6.1 C 6.87 g/m*3 4.04 C 9.7 km/h
14 07-05-2021 03:05:00 6 C 6.82 g/m*3 4.28 C 8.1 km/h
15 07-05-2021 03:10:00 5.9 C 6.78 g/m*3 4.17 C 8.1 km/h
16 07-05-2021 03:15:00 5.9 C 6.78 g/m*3 5.9 C 4.8 km/h
17 07-05-2021 03:20:00 5.9 C 6.78 g/m*3 5.9 C 1.6 km/h
18 07-05-2021 03:25:00 5.9 C 6.78 g/m*3 5.9 C 0 km/h
19 07-05-2021 03:30:00 5.8 C 6.73 g/m*3 5.8 C 1.6 km/h
20 07-05-2021 03:35:00 5.8 C 6.73 g/m*3 5.8 C 1.6 km/h
21 07-05-2021 03:40:00 5.7 C 6.69 g/m*3 5.7 C 3.2 km/h
22 07-05-2021 03:45:00 5.7 C 6.69 g/m*3 5.7 C 4.8 km/h
23 07-05-2021 03:50:00 5.5 C 6.6 g/m*3 5.5 C 4.8 km/h
24 07-05-2021 03:55:00 5.4 C 6.56 g/m*3 5.4 C 1.6 km/h
25 07-05-2021 04:00:00 5.3 C 6.52 g/m*3 5.3 C 3.2 km/h
Sensor: Nr:Datum:Temp:Abs-Feuchte:Windchill:Wind:
Aussen-T/F 26 07-05-2021 04:05:00 5.1 C 6.43 g/m*3 5.1 C 3.2 km/h
27 07-05-2021 04:10:00 4.9 C 6.35 g/m*3 4.9 C 1.6 km/h
28 07-05-2021 04:15:00 4.7 C 6.26 g/m*3 4.7 C 4.8 km/h
29 07-05-2021 04:20:00 4.6 C 6.22 g/m*3 4.6 C 3.2 km/h
30 07-05-2021 04:25:00 4.5 C 6.18 g/m*3 4.5 C 3.2 km/h
31 07-05-2021 04:30:00 4.4 C 6.14 g/m*3 4.4 C 0 km/h
32 07-05-2021 04:35:00 4.4 C 6.14 g/m*3 4.4 C 0 km/h
33 07-05-2021 04:40:00 4.4 C 6.14 g/m*3 4.4 C 0 km/h
34 07-05-2021 04:45:00 4.4 C 6.14 g/m*3 4.4 C 0 km/h
35 07-05-2021 04:50:00 4.4 C 6.2 g/m*3 4.4 C 0 km/h
36 07-05-2021 04:55:00 4.4 C 6.2 g/m*3 4.4 C 1.6 km/h
37 07-05-2021 05:00:00 4.5 C 6.24 g/m*3 4.5 C 1.6 km/h
38 07-05-2021 05:05:00 4.6 C 6.29 g/m*3 4.6 C 4.8 km/h
39 07-05-2021 05:10:00 4.7 C 6.33 g/m*3 4.7 C 4.8 km/h
40 07-05-2021 05:15:00 4.8 C 6.37 g/m*3 4.8 C 4.8 km/h
41 07-05-2021 05:20:00 4.8 C 6.37 g/m*3 4.8 C 0 km/h
42 07-05-2021 05:25:00 4.9 C 6.48 g/m*3 4.9 C 3.2 km/h
43 07-05-2021 05:30:00 4.9 C 6.41 g/m*3 4.9 C 3.2 km/h
44 07-05-2021 05:35:00 4.9 C 6.41 g/m*3 4.9 C 0 km/h
45 07-05-2021 05:40:00 4.8 C 6.37 g/m*3 4.8 C 0 km/h
46 07-05-2021 05:45:00 4.7 C 6.33 g/m*3 4.7 C 3.2 km/h
47 07-05-2021 05:50:00 4.6 C 6.29 g/m*3 4.6 C 1.6 km/h
48 07-05-2021 05:55:00 4.4 C 6.2 g/m*3 4.4 C 3.2 km/h
49 07-05-2021 06:00:00 4.3 C 6.16 g/m*3 4.3 C 1.6 km/h
50 07-05-2021 06:05:00 4.2 C 6.12 g/m*3 4.2 C 4.8 km/h
Sensor: Nr:Datum:Temp:Abs-Feuchte:Windchill:Wind:
Aussen-T/F 51 07-05-2021 06:10:00 4.1 C 6.08 g/m*3 4.1 C 3.2 km/h
52 07-05-2021 06:15:00 3.9 C 6 g/m*3 3.9 C 3.2 km/h
53 07-05-2021 06:20:00 3.8 C 5.96 g/m*3 3.8 C 3.2 km/h
54 07-05-2021 06:25:00 3.8 C 5.96 g/m*3 3.8 C 3.2 km/h
55 07-05-2021 06:30:00 3.7 C 5.92 g/m*3 3.7 C 3.2 km/h
56 07-05-2021 06:35:00 3.7 C 5.92 g/m*3 2.09 C 6.4 km/h
57 07-05-2021 06:40:00 3.6 C 5.88 g/m*3 3.6 C 3.2 km/h
58 07-05-2021 06:45:00 3.6 C 5.88 g/m*3 3.6 C 0 km/h
59 07-05-2021 06:50:00 3.6 C 5.88 g/m*3 3.6 C 1.6 km/h
60 07-05-2021 06:55:00 3.6 C 5.88 g/m*3 3.6 C 0 km/h
61 07-05-2021 07:00:00 3.5 C 5.84 g/m*3 3.5 C 0 km/h
62 07-05-2021 07:05:00 3.5 C 5.84 g/m*3 3.5 C 0 km/h
63 07-05-2021 07:10:00 3.5 C 5.84 g/m*3 3.5 C 1.6 km/h
64 07-05-2021 07:15:00 3.6 C 5.88 g/m*3 3.6 C 0 km/h
65 07-05-2021 07:20:00 3.6 C 5.88 g/m*3 3.6 C 1.6 km/h
66 07-05-2021 07:25:00 3.6 C 5.88 g/m*3 3.6 C 3.2 km/h
67 07-05-2021 07:30:00 3.6 C 5.88 g/m*3 3.6 C 1.6 km/h
68 07-05-2021 07:35:00 3.7 C 5.92 g/m*3 3.7 C 1.6 km/h
69 07-05-2021 07:40:00 3.8 C 6.02 g/m*3 2.21 C 6.4 km/h
70 07-05-2021 07:45:00 3.9 C 6.06 g/m*3 2.32 C 6.4 km/h
71 07-05-2021 07:50:00 4.1 C 6.14 g/m*3 4.1 C 3.2 km/h
72 07-05-2021 07:55:00 4.1 C 6.14 g/m*3 4.1 C 4.8 km/h
73 07-05-2021 08:00:00 4.2 C 6.19 g/m*3 4.2 C 4.8 km/h
74 07-05-2021 08:05:00 4.2 C 6.19 g/m*3 4.2 C 4.8 km/h
75 07-05-2021 08:10:00 4.3 C 6.23 g/m*3 2.78 C 6.4 km/h
Sensor: Nr:Datum:Temp:Abs-Feuchte:Windchill:Wind:
Aussen-T/F 76 07-05-2021 08:15:00 4.4 C 6.27 g/m*3 2.9 C 6.4 km/h
77 07-05-2021 08:20:00 4.4 C 6.2 g/m*3 4.4 C 0 km/h
78 07-05-2021 08:25:00 4.5 C 6.31 g/m*3 4.5 C 4.8 km/h
79 07-05-2021 08:30:00 4.6 C 6.35 g/m*3 2.64 C 8.1 km/h
80 07-05-2021 08:35:00 4.7 C 6.39 g/m*3 3.25 C 6.4 km/h
81 07-05-2021 08:40:00 4.8 C 6.44 g/m*3 3.36 C 6.4 km/h
82 07-05-2021 08:45:00 4.9 C 6.48 g/m*3 3.48 C 6.4 km/h
83 07-05-2021 08:50:00 5.1 C 6.5 g/m*3 3.71 C 6.4 km/h
84 07-05-2021 08:55:00 5.2 C 6.54 g/m*3 2.96 C 9.7 km/h
85 07-05-2021 09:00:00 5.2 C 6.54 g/m*3 2.63 C 11.3 km/h
86 07-05-2021 09:05:00 5.3 C 6.52 g/m*3 3.46 C 8.1 km/h
87 07-05-2021 09:10:00 5.4 C 6.49 g/m*3 4.06 C 6.4 km/h
88 07-05-2021 09:15:00 5.7 C 6.62 g/m*3 3.23 C 11.3 km/h
89 07-05-2021 09:20:00 5.9 C 6.63 g/m*3 3.8 C 9.7 km/h
90 07-05-2021 09:25:00 6.2 C 6.69 g/m*3 3.56 C 12.9 km/h
91 07-05-2021 09:30:00 6.4 C 6.71 g/m*3 4.39 C 9.7 km/h
92 07-05-2021 09:35:00 6.6 C 6.79 g/m*3 5.44 C 6.4 km/h
93 07-05-2021 09:40:00 6.8 C 6.81 g/m*3 6.8 C 4.8 km/h
94 07-05-2021 09:45:00 7.1 C 6.86 g/m*3 4.65 C 12.9 km/h
95 07-05-2021 09:50:00 7.2 C 6.99 g/m*3 7.2 C 4.8 km/h
96 07-05-2021 09:55:00 7.4 C 6.92 g/m*3 5.93 C 8.1 km/h
97 07-05-2021 10:00:00 7.5 C 6.88 g/m*3 5.41 C 11.3 km/h
98 07-05-2021 10:05:00 7.6 C 6.77 g/m*3 5.53 C 11.3 km/h
99 07-05-2021 10:10:00 7.8 C 6.86 g/m*3 5.77 C 11.3 km/h

Legende:
   Min
   Max


Maximal/Minimal-Werte vom 07.05.2021 - 07.05.2021

Sensor Min Max Avg
Temp
(Aussen-T/F)
3.5 °C
07-05-2021  07:00:00
7.8 °C
07-05-2021  10:10:00
5.07 °C
Abs-Feuchte
(Aussen-T/F)
5.84 g/m*3
07-05-2021  07:00:00
7.12 g/m*3
07-05-2021  02:00:00
6.37 g/m*3
Windchill
(Aussen-T/F)
2.09 C
07-05-2021  06:35:00
7.2 C
07-05-2021  09:50:00
4.46 C

Die Daten stammen von einer Davis Vantage Pro 2 Wetter-Station und werden unter Linux mit der Software wview2wettercgi und aufbereitet. Alle Angaben erfolgen ohne Gewähr für ihre Vollständigkeit oder Richtigkeit.
Kontakt: Rainer Krienke krienke@uni-koblenz.de . Meine Webseiten an der Uni Koblenz oder privat.
Version: $Revision: 0.78 $